Date,TemperatureHighF,TemperatureAvgF,TemperatureLowF,DewpointHighF,DewpointAvgF,DewpointLowF,HumidityHigh,HumidityAvg,HumidityLow,PressureMaxIn,PressureMinIn,WindSpeedMaxMPH,WindSpeedAvgMPH,GustSpeedMaxMPH,PrecipitationSumIn
2013-1-1,33,30,23,29,25,16,86,79,69,30.24,30.11,5,0,5,0.05
2013-1-2,30,20,13,20,14,8,84,74,54,30.36,30.22,4,0,4,0.03
2013-1-3,35,23,11,22,15,6,84,71,47,30.40,30.30,10,0,10,0.03
2013-1-4,35,30,25,24,20,18,76,67,54,30.43,30.35,13,1,13,0.04
2013-1-5,41,31,20,28,23,16,85,74,57,30.47,30.24,4,0,4,0.17
2013-1-6,38,33,28,31,26,20,80,74,72,30.43,30.09,13,1,13,0.06
2013-1-7,40,31,24,27,23,19,83,72,57,30.57,30.34,7,0,7,0.04
2013-1-8,48,36,24,33,26,19,83,70,51,30.41,30.30,5,0,5,0.03
2013-1-9,51,43,34,42,34,27,86,71,59,30.58,30.28,7,0,7,0.05
2013-1-10,46,37,29,37,30,24,86,75,67,30.60,30.19,6,0,7,0.02
2013-1-11,60,53,46,54,46,37,87,78,67,30.18,29.96,11,1,11,0.35
2013-1-12,64,59,53,59,54,47,87,83,76,30.08,29.85,10,0,10,0.02
2013-1-13,65,56,37,58,51,33,87,84,73,30.18,29.78,14,1,16,0.54
2013-1-14,37,29,26,33,22,19,83,76,69,30.54,30.18,7,1,7,0.00
2013-1-15,32,29,24,24,22,19,81,75,71,30.48,30.17,9,0,9,0.00
2013-1-16,36,33,31,28,26,24,82,75,66,30.18,30.05,4,0,4,0.00
2013-1-17,42,34,28,30,25,19,82,71,56,30.46,30.16,9,0,9,0.00
2013-1-18,38,30,19,24,19,14,82,65,45,30.62,30.31,9,0,9,0.00
2013-1-19,54,44,36,29,25,22,62,49,31,30.31,29.96,12,1,12,0.00
2013-1-20,45,34,26,34,18,10,68,51,38,30.30,29.95,17,2,17,0.00
2013-1-21,26,21,12,17,10,-2,76,60,48,30.35,30.17,12,2,13,0.00
2013-1-22,19,13,7,3,-1,-3,65,53,41,30.50,30.34,10,1,11,0.00
2013-1-23,22,18,13,12,6,0,72,57,45,30.45,30.18,6,0,6,0.00
2013-1-24,23,19,13,14,7,2,76,61,41,30.68,30.19,11,1,11,0.00
2013-1-25,26,23,19,20,13,6,78,67,51,30.56,30.13,5,0,5,0.00
2013-1-26,31,25,18,20,16,12,85,71,57,30.54,30.21,7,0,7,0.07
2013-1-27,37,28,18,31,20,12,84,71,59,30.56,30.27,6,0,6,0.25
2013-1-28,50,45,35,47,41,31,88,86,79,30.27,30.09,9,0,9,0.37
2013-1-29,63,57,49,56,51,46,88,80,69,30.11,29.63,15,1,15,0.00
2013-1-30,66,54,34,56,47,24,87,77,68,29.63,29.32,18,2,18,0.62
2013-1-31,33,28,18,25,18,12,81,68,57,30.10,29.58,15,3,16,0.00
2013-2-1,18,12,7,12,3,-1,79,67,55,30.51,30.10,11,1,12,0.01
2013-2-2,31,23,9,24,16,3,82,77,70,30.45,30.09,7,0,7,0.00
2013-2-3,28,22,14,22,14,8,79,71,60,30.23,30.01,10,1,11,0.00
2013-2-4,34,26,13,30,20,9,86,78,61,30.23,29.92,8,0,8,0.00
2013-2-5,36,33,29,31,27,23,90,78,65,30.08,29.92,9,0,9,0.01
2013-2-6,36,33,27,29,25,21,78,72,63,30.36,30.08,6,0,6,0.02
2013-2-7,54,41,29,38,30,22,79,66,51,30.31,29.87,5,0,5,0.00
2013-2-8,49,37,30,40,30,21,84,74,56,30.40,29.84,12,2,13,0.12
2013-2-9,39,30,22,23,20,16,82,66,45,30.52,30.33,5,0,5,0.00
2013-2-10,53,42,29,41,28,19,77,58,36,30.33,29.86,15,1,15,0.02
2013-2-11,50,47,38,46,34,26,85,64,46,30.09,29.81,15,2,17,0.01
2013-2-12,50,38,30,29,26,23,82,63,37,30.21,29.99,6,0,6,0.00
2013-2-13,34,31,28,28,25,23,85,80,69,29.99,29.84,5,0,5,0.06
2013-2-14,51,38,28,39,31,24,90,77,55,30.06,29.88,9,1,9,0.01
2013-2-15,40,33,26,32,27,20,84,79,64,30.23,30.05,12,0,14,0.03
2013-2-16,28,23,18,21,16,11,85,74,61,30.22,30.12,11,1,11,0.01
2013-2-17,19,17,14,12,9,6,75,70,66,30.28,30.20,5,0,5,0.00
2013-2-18,56,34,22,37,19,10,76,55,38,30.30,29.82,11,1,14,0.07
2013-2-19,44,33,24,38,25,15,84,73,61,30.18,29.70,14,2,14,0.18
2013-2-20,26,23,20,16,13,10,73,66,58,30.41,30.18,11,1,11,0.01
2013-2-21,30,26,22,22,17,12,74,69,66,30.45,30.16,7,1,9,0.00
2013-2-22,42,35,29,36,30,22,90,82,72,30.16,29.98,7,1,7,0.21
2013-2-23,42,36,31,31,27,24,90,71,52,30.07,29.97,9,2,9,0.00
2013-2-24,40,32,28,25,22,20,79,68,51,30.25,30.01,10,0,10,0.00
2013-2-25,45,34,24,28,23,18,82,65,48,30.28,29.99,8,0,9,0.00
2013-2-26,46,40,34,42,34,23,85,77,61,29.99,29.44,11,1,11,0.62
2013-2-27,42,37,33,38,32,29,90,83,75,29.78,29.56,11,1,11,0.07
2013-2-28,36,34,32,31,29,27,85,83,80,30.01,29.75,6,1,7,0.10
2013-3-1,36,34,30,30,28,22,85,80,72,30.12,29.99,6,0,6,0.01
2013-3-2,30,28,27,23,20,19,82,72,68,30.16,30.09,6,0,6,0.00
2013-3-3,31,29,26,21,19,16,78,67,54,30.17,30.11,10,1,10,0.01
2013-3-4,42,32,19,28,21,15,84,66,39,30.26,30.09,6,0,6,0.01
2013-3-5,38,35,33,33,30,28,86,80,73,30.11,29.64,7,0,7,0.26
2013-3-6,33,31,30,29,27,26,86,85,84,30.17,29.66,0,0,0,0.01
2013-3-7,38,33,30,31,28,25,89,80,68,30.45,30.31,5,1,5,0.42
2013-3-8,40,30,25,27,23,20,83,75,50,30.56,30.45,5,0,5,0.08
2013-3-9,56,42,29,37,30,23,82,62,42,30.47,30.10,7,0,7,0.00
2013-3-10,69,58,50,40,34,30,51,40,27,30.10,29.88,12,0,12,0.01
2013-3-11,59,49,39,49,42,31,84,77,49,29.91,29.62,15,1,15,1.18
2013-3-12,43,38,34,32,29,27,80,71,57,30.11,29.90,15,1,15,0.00
2013-3-13,35,30,27,29,23,19,83,73,62,30.38,30.06,15,2,17,0.01
2013-3-14,43,32,23,23,20,14,82,61,33,30.43,30.23,7,0,9,0.00
2013-3-15,52,41,30,38,31,22,82,68,49,30.24,29.86,5,0,6,0.00
2013-3-16,58,46,36,49,39,30,86,77,65,30.08,29.66,11,1,12,0.19
2013-3-17,37,35,33,30,28,26,79,74,69,30.24,30.07,10,1,10,0.01
2013-3-18,50,41,33,46,36,29,88,84,72,30.09,29.67,12,1,12,0.93
2013-3-19,43,37,30,32,23,14,79,57,32,30.17,29.87,15,3,17,0.00
2013-3-20,38,31,25,21,17,10,75,56,41,30.16,30.02,12,2,15,0.00
2013-3-21,31,26,20,18,14,10,77,61,47,30.12,30.01,10,1,12,0.00
2013-3-22,42,32,23,22,17,14,73,56,33,30.16,30.07,9,0,9,0.00
2013-3-23,49,38,28,26,22,17,78,55,29,30.15,29.96,7,0,10,0.00
2013-3-24,36,34,33,30,27,24,86,74,60,29.96,29.48,12,2,13,0.02
2013-3-25,34,33,30,30,28,27,90,85,83,30.00,29.49,10,1,11,0.27
2013-3-26,40,35,30,30,28,25,85,77,61,30.30,30.00,10,1,10,0.22
2013-3-27,42,36,30,30,26,22,80,66,49,30.38,30.28,10,1,10,0.00
2013-3-28,49,38,27,29,25,21,80,60,38,30.42,30.35,10,1,10,0.00
2013-3-29,54,42,27,34,28,22,83,60,34,30.40,30.27,6,0,6,0.00
2013-3-30,59,46,31,36,30,24,83,56,30,30.32,30.01,4,0,6,0.00
2013-3-31,56,48,44,46,40,31,86,72,55,30.00,29.82,9,0,9,0.05
2013-4-1,49,41,33,40,27,18,78,57,34,30.19,29.84,12,2,12,0.01
2013-4-2,45,36,24,21,18,14,76,50,28,30.34,30.19,11,1,11,0.00
2013-4-3,47,36,24,21,16,11,76,47,24,30.50,30.33,12,1,13,0.00
2013-4-4,55,42,31,30,19,12,67,42,19,30.42,30.06,5,0,6,0.00
2013-4-5,60,46,30,36,27,23,82,52,27,30.20,30.03,12,1,12,0.00
2013-4-6,66,51,34,34,26,20,61,41,23,30.30,29.96,9,0,9,0.00
2013-4-7,73,63,56,53,42,33,80,48,35,30.03,29.89,12,1,12,0.07
2013-4-8,72,62,52,55,50,46,85,67,49,30.05,29.92,12,0,13,0.11
2013-4-9,82,68,53,60,53,47,82,61,37,30.09,29.94,11,0,12,0.00
2013-4-10,83,72,63,64,58,54,74,61,44,29.98,29.82,11,1,12,0.00
2013-4-11,65,61,58,60,55,53,87,82,71,29.88,29.59,10,1,10,0.78
2013-4-12,58,48,42,54,39,32,87,73,56,29.99,29.55,13,1,13,0.16
2013-4-13,58,47,39,39,34,31,78,62,39,30.11,29.99,13,1,13,0.00
2013-4-14,71,54,38,42,37,31,78,54,30,30.15,29.94,10,0,10,0.00
2013-4-15,69,62,53,52,48,38,71,60,42,30.05,29.93,9,0,9,0.00
2013-4-16,82,66,58,63,56,50,86,71,49,30.22,30.00,9,1,12,0.43
2013-4-17,80,65,55,64,57,51,89,76,52,30.26,30.02,9,0,9,0.91
2013-4-18,84,73,64,62,56,48,75,57,35,30.02,29.64,16,2,16,0.00
2013-4-19,73,51,39,57,40,30,85,68,44,30.05,29.46,14,2,16,0.88
2013-4-20,50,42,36,33,29,24,82,60,37,30.48,30.05,11,1,11,0.01
2013-4-21,55,44,32,30,26,22,69,52,29,30.61,30.45,9,1,10,0.00
2013-4-22,70,55,38,40,32,25,64,45,25,30.45,30.19,11,0,11,0.00
2013-4-23,71,60,47,50,43,34,71,54,40,30.20,29.90,17,0,17,0.00
2013-4-24,65,52,38,53,42,32,85,71,54,30.30,29.81,15,1,15,0.75
2013-4-25,60,46,35,38,33,28,86,64,37,30.45,30.30,11,1,12,0.00
2013-4-26,61,48,33,37,30,24,84,54,26,30.54,30.41,5,0,5,0.00
2013-4-27,69,56,42,49,38,31,74,54,27,30.41,30.11,10,0,10,0.00
2013-4-28,67,59,55,57,53,48,85,79,67,30.11,29.86,9,0,10,0.13
2013-4-29,64,58,54,55,52,49,87,79,65,30.05,29.93,4,0,4,0.04
2013-4-30,78,64,49,56,51,45,89,67,39,30.11,30.02,8,0,8,0.01
2013-5-1,84,69,54,59,53,49,83,60,33,30.23,30.10,10,0,11,0.00
2013-5-2,76,67,60,54,51,48,69,57,42,30.27,30.14,12,0,13,0.00
2013-5-3,77,67,60,56,49,36,74,54,28,30.14,29.93,13,1,13,0.00
2013-5-4,71,64,57,49,45,37,65,50,38,29.98,29.90,15,1,15,0.00
2013-5-5,64,59,54,50,45,39,85,62,42,29.96,29.89,10,0,10,0.02
2013-5-6,60,56,53,56,52,49,89,86,82,29.95,29.87,13,0,13,0.72
2013-5-7,70,61,55,59,55,52,90,81,59,29.94,29.87,9,0,9,0.09
2013-5-8,74,63,54,60,55,51,90,76,50,29.96,29.88,9,0,9,0.06
2013-5-9,81,66,54,62,56,50,91,71,36,29.99,29.90,5,0,5,0.00
2013-5-10,70,63,59,62,59,56,91,86,72,29.93,29.77,11,0,12,1.05
2013-5-11,62,54,45,59,49,41,91,84,72,29.98,29.79,18,0,18,0.37
2013-5-12,56,47,39,41,36,31,90,68,42,30.10,29.98,11,0,11,0.00
2013-5-13,60,50,40,38,35,28,82,58,31,30.16,30.09,13,0,13,0.00
2013-5-14,80,62,44,58,45,34,78,55,40,30.12,29.78,13,0,16,0.00
2013-5-15,87,75,65,63,58,55,75,57,37,29.83,29.74,12,1,16,0.00
2013-5-16,78,69,63,66,60,55,89,76,55,29.95,29.78,6,0,7,0.20
2013-5-17,80,66,57,66,61,54,93,83,58,30.03,29.93,7,0,9,0.14
2013-5-18,81,69,62,67,62,59,91,81,55,30.03,29.92,7,0,7,0.66
2013-5-19,84,71,62,69,64,60,93,80,52,29.97,29.86,5,0,5,0.00
2013-5-20,85,75,67,70,67,64,91,75,56,29.96,29.83,11,0,12,0.00
2013-5-21,85,76,68,67,64,61,85,68,47,29.91,29.75,12,0,12,0.00
2013-5-22,80,70,63,65,62,58,89,75,54,29.80,29.68,13,0,17,0.21
2013-5-23,70,63,51,62,57,45,91,81,64,30.05,29.74,12,0,15,0.05
2013-5-24,64,54,46,45,40,35,80,62,36,30.29,30.05,14,1,14,0.00
2013-5-25,66,55,43,48,42,37,83,64,39,30.38,30.20,6,0,6,0.00
2013-5-26,70,61,49,48,44,39,81,56,35,30.28,30.15,9,0,9,0.00
2013-5-27,82,66,52,61,52,44,86,63,44,30.18,29.92,12,0,12,0.22
2013-5-28,84,76,69,66,60,56,72,60,46,29.98,29.89,15,1,15,0.00
2013-5-29,86,79,68,65,61,57,73,55,39,30.03,29.93,11,2,11,0.00
2013-5-30,88,78,70,68,64,60,78,63,48,30.10,29.95,13,0,13,0.00
2013-5-31,84,73,67,68,64,62,90,74,56,30.01,29.90,14,1,14,0.84
2013-6-1,81,74,67,69,66,63,90,77,63,29.92,29.73,14,1,14,0.16
2013-6-2,78,71,65,67,61,57,89,73,54,29.88,29.75,7,0,7,0.00
2013-6-3,68,62,55,57,53,49,82,73,62,30.03,29.87,9,0,9,0.00
2013-6-4,77,63,49,49,46,38,88,58,30,30.13,30.02,7,0,7,0.00
2013-6-5,81,69,56,64,54,48,84,61,42,30.06,29.81,7,0,7,0.16
2013-6-6,70,67,64,66,63,59,91,88,80,29.83,29.73,4,0,5,0.33
2013-6-7,73,63,57,61,56,53,90,78,53,29.87,29.76,6,0,7,0.00
2013-6-8,76,66,55,62,57,51,89,75,58,30.00,29.85,5,0,5,0.00
2013-6-9,82,72,63,65,62,58,86,71,47,30.03,29.86,8,0,9,0.00
2013-6-10,78,68,64,67,63,60,91,84,60,29.87,29.73,9,0,9,1.10
2013-6-11,85,72,63,69,64,60,91,76,48,29.92,29.81,7,0,8,0.01
2013-6-12,88,79,69,76,70,64,86,75,61,29.88,29.67,8,0,8,0.00
2013-6-13,81,71,66,71,62,55,91,76,52,29.87,29.53,12,0,12,0.94
2013-6-14,78,68,57,62,57,53,88,69,49,30.02,29.87,9,0,9,0.00
2013-6-15,83,71,57,64,59,54,90,69,48,30.09,29.91,7,0,7,0.00
2013-6-16,77,72,69,68,64,61,87,77,67,29.97,29.89,10,0,10,0.04
2013-6-17,86,74,67,70,66,63,91,78,49,29.94,29.83,4,0,5,0.00
2013-6-18,83,72,66,70,64,57,90,77,55,29.96,29.80,9,0,9,0.24
2013-6-19,80,68,57,58,54,50,85,64,40,30.09,29.95,7,0,7,0.00
2013-6-20,85,71,57,63,57,52,85,63,38,30.17,30.08,4,0,5,0.00
2013-6-21,89,75,61,67,62,55,84,65,41,30.18,30.06,5,0,5,0.00
2013-6-22,90,77,66,73,67,62,87,72,50,30.12,30.00,6,0,7,0.00
2013-6-23,90,76,67,71,66,61,91,72,44,30.09,29.98,10,0,12,0.00
2013-6-24,84,74,66,74,67,62,90,79,61,30.11,29.96,9,0,12,0.52
2013-6-25,90,79,68,75,69,65,91,75,53,30.03,29.82,7,0,8,0.00
2013-6-26,85,74,67,73,68,63,91,82,65,29.89,29.72,11,0,13,0.55
2013-6-27,85,74,67,73,68,64,92,83,63,29.74,29.63,5,0,7,0.18
2013-6-28,85,74,64,69,65,56,89,75,45,29.63,29.51,17,0,17,0.04
2013-6-29,77,69,62,67,63,59,93,82,62,29.61,29.51,5,0,5,0.05
2013-6-30,82,70,65,67,63,60,90,79,50,29.78,29.60,10,0,10,0.03
2013-7-1,77,69,64,68,64,60,89,85,71,29.87,29.75,6,0,6,0.14
2013-7-2,82,72,64,69,65,61,92,80,59,29.97,29.86,4,0,5,0.00
2013-7-3,82,74,68,69,66,64,89,77,58,30.07,29.95,7,0,9,0.14
2013-7-4,71,70,68,68,66,65,91,90,88,30.12,30.03,6,0,6,0.67
2013-7-5,76,71,66,69,66,63,92,86,74,30.11,30.01,7,0,9,0.25
2013-7-6,79,72,68,72,68,64,92,87,72,30.08,29.98,12,0,12,0.58
2013-7-7,82,72,66,69,66,63,91,80,62,30.07,29.97,5,0,5,0.00
2013-7-8,86,77,69,74,69,64,88,77,64,30.08,29.98,6,0,7,0.00
2013-7-9,90,78,73,78,71,68,90,79,60,30.02,29.93,7,0,9,0.30
2013-7-10,88,76,67,78,70,63,90,83,67,29.94,29.77,11,0,12,0.32
2013-7-11,80,72,64,68,63,56,92,75,59,29.98,29.88,0,0,0,0.00
2013-7-12,79,68,59,62,58,54,87,70,46,30.05,29.98,0,0,0,0.00
2013-7-13,83,71,63,68,62,58,85,75,51,30.10,30.01,11,0,11,0.00
2013-7-14,89,79,68,75,69,64,88,74,57,30.16,30.08,7,0,7,0.00
2013-7-15,91,81,73,73,70,68,85,70,50,30.25,30.16,0,0,0,0.00
2013-7-16,93,81,71,76,71,68,91,74,48,30.27,30.19,1,0,1,0.00
2013-7-17,92,81,72,77,73,69,91,77,53,30.26,30.11,2,0,2,0.00
2013-7-18,94,86,73,75,72,68,91,66,46,30.14,29.96,0,0,0,0.00
2013-7-19,90,81,74,77,73,67,91,78,59,29.99,29.84,12,0,12,0.15
2013-7-20,88,75,71,76,70,68,91,85,64,29.87,29.79,5,0,10,0.51
2013-7-21,85,75,68,73,69,65,92,83,64,29.92,29.82,0,0,0,0.00
2013-7-22,78,74,70,72,70,67,90,86,76,29.76,29.71,0,0,0,0.19
2013-7-23,86,74,69,75,69,63,93,84,61,29.77,29.68,8,0,8,0.08
2013-7-24,77,68,61,65,59,54,85,74,54,29.96,29.75,9,0,11,0.00
2013-7-25,77,66,55,59,55,51,88,70,47,30.05,29.96,2,0,2,0.00
2013-7-26,81,69,56,63,58,52,91,71,45,30.05,29.93,0,0,0,0.00
2013-7-27,74,67,63,67,62,58,91,85,72,29.93,29.79,2,0,2,0.50
2013-7-28,73,63,55,58,53,50,90,71,47,30.03,29.86,0,0,0,0.00
2013-7-29,79,66,54,60,56,51,88,71,46,30.15,30.02,0,0,0,0.00
2013-7-30,79,68,57,65,59,53,90,75,47,30.20,30.08,0,0,0,0.00
2013-7-31,75,69,65,67,64,61,90,82,73,30.08,29.90,0,0,0,0.02
2013-8-1,82,72,65,67,63,57,90,75,52,29.95,29.86,0,0,0,0.00
2013-8-2,84,71,58,65,60,54,91,71,47,29.97,29.90,0,0,0,0.00
2013-8-3,79,71,65,69,64,60,90,81,59,29.98,29.90,0,0,0,0.06
2013-8-4,77,68,60,61,57,52,87,70,45,30.09,29.98,7,0,7,0.00
2013-8-5,80,67,56,61,57,53,89,71,43,30.09,29.93,0,0,0,0.00
2013-8-6,84,72,62,68,62,56,85,72,56,29.95,29.88,0,0,0,0.00
2013-8-7,86,79,68,74,71,64,90,77,64,29.90,29.82,0,0,0,0.03
2013-8-8,84,75,71,75,70,68,92,87,70,29.91,29.83,4,0,4,1.12
2013-8-9,80,73,70,72,69,67,93,88,72,29.99,29.84,1,0,1,0.16
2013-8-10,84,77,67,72,68,64,92,75,56,30.07,29.97,0,0,0,0.00
2013-8-11,86,75,67,72,68,64,92,78,54,30.05,29.97,0,0,0,0.00
2013-8-12,86,74,65,71,66,61,91,77,50,30.02,29.82,0,0,0,1.37
2013-8-13,77,70,58,68,62,50,92,77,57,30.01,29.79,0,0,0,0.01
2013-8-14,71,60,53,53,50,47,86,70,48,30.14,30.01,7,0,9,0.00
2013-8-15,74,62,50,58,52,47,90,73,48,30.15,30.05,6,0,6,0.00
2013-8-16,78,66,56,59,55,51,87,69,45,30.12,30.07,0,0,0,0.00
2013-8-17,82,68,58,64,58,52,85,71,47,30.15,30.08,0,0,0,0.00
2013-8-18,80,69,60,66,61,56,90,78,58,30.14,30.06,0,0,0,0.00
2013-8-19,83,70,60,66,61,57,93,75,45,30.11,30.03,0,0,0,0.00
2013-8-20,86,67,61,68,61,58,92,81,47,30.14,30.05,2,0,2,0.00
2013-8-21,83,74,67,73,67,62,85,79,64,30.12,30.01,1,0,1,0.11
2013-8-22,86,74,66,72,67,63,91,79,58,30.07,29.97,1,0,1,0.00
2013-8-23,85,73,66,69,65,60,92,78,51,30.10,29.98,0,0,0,0.02
2013-8-24,86,71,60,67,61,55,84,71,44,30.22,30.10,0,0,0,0.00
2013-8-25,86,72,60,66,61,56,90,71,41,30.30,30.18,1,0,1,0.00
2013-8-26,88,74,63,73,66,59,91,77,51,30.21,30.01,9,0,9,0.00
2013-8-27,89,77,69,76,70,65,92,80,61,30.01,29.90,0,0,1,0.03
2013-8-28,91,80,73,76,72,70,90,77,57,29.91,29.80,1,0,3,0.01
2013-8-29,83,74,68,71,68,65,91,83,66,30.00,29.90,0,0,0,0.00
2013-8-30,90,76,65,72,67,62,93,77,49,29.96,29.78,0,0,0,0.00
2013-8-31,87,76,69,75,69,66,90,82,65,29.82,29.70,6,0,9,0.14
2013-9-1,86,74,66,72,68,63,90,80,57,29.79,29.69,1,0,2,0.00
2013-9-2,85,76,69,73,68,59,91,78,58,29.83,29.71,0,0,1,0.00
2013-9-3,74,65,57,59,55,53,87,73,51,30.03,29.83,2,0,2,0.00
2013-9-4,82,66,52,63,56,49,92,74,43,30.12,30.02,0,0,0,0.00
2013-9-5,86,69,57,67,59,49,92,73,45,30.17,30.08,0,0,0,0.00
2013-9-6,80,64,51,57,50,45,86,63,32,30.22,30.07,1,0,1,0.00
2013-9-7,86,69,54,68,59,49,86,71,48,30.08,29.90,0,0,0,0.00
2013-9-8,89,75,65,72,66,62,91,74,48,29.95,29.88,3,0,3,0.00
2013-9-9,90,77,67,72,67,63,90,73,48,29.99,29.91,3,0,3,0.00
2013-9-10,93,81,73,76,71,68,86,73,54,30.07,29.96,0,0,0,0.00
2013-9-11,90,78,70,75,70,67,89,77,54,30.10,29.96,0,0,0,0.05
2013-9-12,78,72,65,70,67,61,91,84,72,29.96,29.80,2,0,2,0.36
2013-9-13,65,58,51,60,49,44,88,73,54,30.06,29.86,3,0,3,0.00
2013-9-14,71,56,44,50,44,41,90,69,34,30.16,30.06,2,0,2,0.00
2013-9-15,76,61,46,60,51,42,90,72,46,30.13,29.99,3,0,3,0.00
2013-9-16,70,62,56,57,54,50,89,76,57,30.26,30.03,8,0,8,0.01
2013-9-17,76,61,49,56,51,46,89,71,43,30.30,30.14,0,0,0,0.00
2013-9-18,80,67,57,64,58,51,88,75,48,30.14,30.01,0,0,0,0.00
2013-9-19,80,69,64,69,64,61,91,84,64,30.05,29.92,0,0,0,0.21
2013-9-20,86,74,67,70,66,64,91,79,54,29.96,29.73,5,0,6,1.79
2013-9-21,73,65,57,66,58,49,92,79,50,29.84,29.64,8,0,9,1.18
2013-9-22,67,57,50,49,47,43,87,70,43,29.99,29.84,10,0,11,0.00
2013-9-23,70,56,44,50,45,41,90,70,43,30.11,29.99,9,0,9,0.00
2013-9-24,74,58,44,56,48,41,89,72,49,30.08,29.90,7,0,7,0.00
2013-9-25,68,58,52,56,51,47,87,77,55,29.91,29.85,5,0,5,0.00
2013-9-26,82,62,48,60,52,45,91,74,40,30.04,29.90,6,0,6,0.00
2013-9-27,80,63,49,57,50,45,88,68,34,30.15,30.03,0,0,0,0.00
2013-9-28,82,65,50,59,53,46,90,68,35,30.16,30.01,12,0,12,0.00
2013-9-29,72,63,56,61,57,52,90,80,64,30.02,29.97,6,0,6,0.00
2013-9-30,71,64,60,63,59,57,91,84,72,30.00,29.92,1,0,1,0.10
2013-10-1,78,66,57,65,59,54,93,80,55,30.05,29.97,5,0,5,0.00
2013-10-2,83,69,59,69,63,56,92,81,59,30.08,29.99,4,0,6,0.00
2013-10-3,77,70,67,70,66,64,92,86,71,30.06,29.96,3,0,5,0.35
2013-10-4,82,71,64,70,65,61,92,81,62,30.05,29.97,4,0,5,0.01
2013-10-5,81,71,65,71,66,62,91,85,69,30.01,29.90,6,0,6,0.49
2013-10-6,73,64,53,67,61,50,93,89,80,29.91,29.66,10,0,11,1.92
2013-10-7,62,53,45,52,46,42,91,80,56,30.14,29.77,7,0,9,0.00
2013-10-8,69,53,42,50,44,38,92,74,40,30.27,30.14,9,0,9,0.01
2013-10-9,74,56,46,53,46,42,88,71,35,30.23,30.13,9,0,9,0.00
2013-10-10,75,56,43,51,45,40,89,70,34,30.17,30.05,4,0,4,0.00
2013-10-11,79,60,47,54,49,44,90,70,35,30.08,29.98,5,0,6,0.00
2013-10-12,76,62,51,63,55,47,93,79,59,30.09,29.99,5,0,5,0.00
2013-10-13,72,61,52,61,54,46,93,79,56,30.26,30.08,4,0,7,0.00
2013-10-14,72,54,46,53,45,41,85,73,42,30.31,30.19,5,0,5,0.00
2013-10-16,66,60,49,60,52,44,85,76,65,29.93,29.84,6,0,6,0.00
2013-10-17,55,48,42,50,44,39,91,85,77,29.96,29.84,6,0,6,0.06
2013-10-18,64,46,42,50,42,39,91,84,49,30.02,29.91,10,0,13,0.09
2013-10-19,51,46,40,45,42,37,89,84,77,29.99,29.80,6,0,6,0.15
2013-10-20,62,48,37,45,40,34,89,74,51,30.03,29.96,10,0,10,0.00
2013-10-21,67,54,42,48,42,37,82,66,41,30.00,29.86,11,0,11,0.01
2013-10-22,52,44,33,46,33,25,87,67,36,30.03,29.84,6,0,6,0.01
2013-10-23,45,41,37,38,36,32,89,82,72,30.02,29.73,7,0,8,0.01
2013-10-24,44,39,36,36,34,31,88,80,63,30.24,30.02,8,0,11,0.03
2013-10-25,50,38,30,35,30,26,93,74,47,30.42,30.24,6,0,6,0.00
2013-10-26,51,41,32,39,31,26,79,69,55,30.27,29.92,10,0,10,0.00
2013-10-27,57,44,33,40,34,30,91,72,42,30.09,30.02,5,0,5,0.00
2013-10-28,64,45,32,42,34,28,91,70,33,30.28,30.07,6,0,6,0.00
2013-10-29,59,48,36,46,40,33,93,75,56,30.35,30.19,4,0,4,0.00
2013-10-30,62,57,51,60,54,45,92,89,76,30.19,29.96,4,0,4,0.08
2013-10-31,64,62,60,61,57,55,91,84,75,29.96,29.30,14,2,14,0.73
2013-11-1,63,56,48,60,48,44,91,75,54,29.71,29.35,10,0,11,0.18
2013-11-2,55,50,45,44,40,35,86,69,51,30.05,29.69,10,0,11,0.00
2013-11-3,53,45,39,41,38,34,93,75,53,30.36,30.05,5,0,5,0.00
2013-11-4,58,48,37,42,37,31,83,66,50,30.41,30.28,9,1,9,0.00
2013-11-5,63,55,50,44,41,38,75,61,45,30.39,30.19,5,0,5,0.00
2013-11-6,66,57,47,57,47,37,89,71,51,30.19,29.92,12,1,12,0.40
2013-11-7,50,43,37,43,34,26,88,71,43,30.22,29.98,10,0,10,0.06
2013-11-8,50,40,31,34,30,27,87,69,45,30.35,30.18,11,0,11,0.00
2013-11-9,61,44,39,38,30,27,68,60,37,30.23,29.99,12,2,17,0.00
2013-11-10,50,43,31,39,32,26,84,65,44,30.34,30.05,10,0,10,0.00
2013-11-11,53,41,29,42,33,25,88,75,45,30.30,30.06,10,0,12,0.01
2013-11-12,35,29,25,31,23,20,87,76,55,30.61,30.22,11,1,11,0.00
2013-11-13,41,31,22,24,20,17,87,67,41,30.64,30.40,7,0,7,0.00
2013-11-14,54,40,30,28,22,17,70,51,25,30.39,30.15,6,1,9,0.00
2013-11-15,53,46,39,41,29,21,80,53,39,30.17,30.08,8,1,8,0.00
2013-11-16,60,53,47,53,47,41,86,81,77,30.12,29.88,11,1,11,0.00
2013-11-17,63,59,49,60,54,40,90,83,64,29.89,29.45,16,3,18,0.04
2013-11-18,53,45,35,41,35,28,85,67,49,30.17,29.74,17,1,17,0.00
2013-11-19,41,34,29,30,27,25,85,75,60,30.35,30.17,5,0,5,0.00
2013-11-20,51,39,30,33,28,23,85,67,49,30.34,30.22,10,0,10,0.00
2013-11-21,57,49,43,47,38,29,88,66,53,30.32,30.17,7,0,9,0.03
2013-11-22,53,48,38,51,44,30,91,85,73,30.34,30.13,11,0,11,0.03
2013-11-23,39,31,21,31,22,10,87,71,48,30.54,30.32,12,1,12,0.00
2013-11-24,28,21,15,14,11,8,80,67,49,30.69,30.54,5,0,9,0.00
2013-11-25,38,29,18,27,18,12,80,63,46,30.54,30.18,7,1,7,0.00
2013-11-26,35,33,31,31,29,27,88,86,78,30.20,29.91,4,0,4,0.02
2013-11-27,32,28,23,28,20,15,86,72,58,30.28,29.89,10,1,12,0.01
2013-11-28,33,25,19,20,17,12,85,70,53,30.45,30.28,9,1,9,0.00
2013-11-29,38,27,17,24,19,13,88,74,54,30.64,30.45,5,0,5,0.01
2013-11-30,50,37,25,31,26,19,81,65,46,30.52,30.16,6,0,6,0.00
2013-12-1,50,44,34,38,34,26,80,66,57,30.16,29.93,7,0,7,0.00
2013-12-2,50,41,34,40,35,30,90,80,64,29.93,29.77,4,0,4,0.03
2013-12-3,53,43,35,46,39,32,92,85,74,29.87,29.76,5,0,5,0.01
2013-12-4,61,54,46,55,50,43,89,83,79,29.85,29.69,10,1,10,0.00
2013-12-5,63,49,33,57,44,29,90,83,75,30.13,29.71,10,1,11,0.46
2013-12-6,33,30,27,29,26,23,88,86,84,30.39,30.10,7,1,7,0.03
2013-12-7,27,22,16,23,17,11,86,79,66,30.61,30.38,6,0,6,0.05
2013-12-8,23,21,17,18,15,12,81,78,75,30.55,30.35,7,1,9,0.00
2013-12-9,33,30,25,31,26,18,90,83,75,30.23,29.99,10,1,10,0.01
2013-12-10,29,22,16,18,16,10,85,79,61,30.37,30.15,10,0,10,0.00
2013-12-11,35,22,10,23,15,6,87,75,58,30.51,30.27,9,1,11,0.03
2013-12-12,25,17,6,11,7,2,82,65,41,30.57,30.35,6,1,6,0.00
2013-12-13,37,27,16,29,17,8,86,67,53,30.36,30.15,5,0,5,0.09
2013-12-14,37,35,32,35,32,28,90,88,84,30.15,29.69,8,0,9,0.51
2013-12-15,32,29,27,30,23,19,89,79,69,30.11,29.84,14,1,14,0.00
2013-12-16,32,29,28,30,25,21,93,84,77,30.13,29.98,6,0,8,0.01
2013-12-17,33,30,26,30,26,21,89,82,73,30.15,29.97,11,1,11,0.00
2013-12-18,37,28,20,22,19,16,86,70,53,30.26,30.04,11,1,11,0.01
2013-12-19,51,44,35,39,31,21,68,60,54,30.08,29.93,9,1,9,0.08
2013-12-20,59,53,49,54,45,35,87,74,53,29.93,29.79,11,3,12,0.02
2013-12-21,66,60,56,61,56,52,92,89,81,29.79,29.40,21,3,21,1.43
2013-12-22,61,53,40,58,48,36,91,83,73,30.01,29.49,14,2,14,0.45
2013-12-23,40,33,26,36,26,18,84,74,66,30.38,30.01,10,1,10,0.00
2013-12-24,26,20,14,22,12,6,85,72,60,30.58,30.36,9,0,10,0.00
2013-12-25,33,26,17,25,17,12,83,69,50,30.52,30.19,9,1,9,0.00
2013-12-26,40,33,28,26,23,19,78,66,48,30.35,30.16,12,1,12,0.00
2013-12-27,47,37,29,32,27,22,80,67,52,30.40,30.27,5,1,6,0.00
2013-12-28,52,42,34,36,30,27,75,63,49,30.27,30.00,7,1,8,0.00
2013-12-29,44,39,34,40,34,27,90,82,55,30.01,29.76,9,0,9,0.37
2013-12-30,34,28,24,29,21,16,82,72,63,30.24,30.00,9,1,9,0.00
2013-12-31,33,28,24,22,18,14,75,66,55,30.38,30.16,12,1,12,0.00
2014-1-1,44,33,24,30,25,19,81,71,53,30.30,30.00,5,0,6,0.00
2014-1-2,34,24,11,29,20,4,88,82,74,30.27,29.80,13,1,13,0.00